Quakertown, PA

4:58 PM EST on December 11, 2017 (GMT -0500)
Quakertown

Weather History for KUKT - March, 2013

Change the Weather History Date:

Sunday, March 31, 2013

  Actual Average (KABE) Record (KABE)
Temperature  
Mean Temperature 42 °F -  
Max Temperature 55 °F 54 °F 86 °F (1998)
Min Temperature 28 °F 35 °F 11 °F (1923)
Degree Days  
Heating Degree Days 24    
Moisture  
Dew Point 34 °F    
Average Humidity 76    
Maximum Humidity 100    
Minimum Humidity 38    
Precipitation  
Precipitation 0.06 in - - ()
Sea Level Pressure  
Sea Level Pressure 29.94 in    
Wind  
Wind Speed 3 mph (SE)    
Max Wind Speed 15 mph    
Max Gust Speed 24 mph    
Visibility 8 miles    
Events      
Averages and records for this station are not official NWS values.
T = Trace of Precipitation, MM = Missing Value Source: NWS Daily Summary

Daily Weather History Graph

Daily Weather History Graph

Search for Another Location

Airport or City:

Trip Planner

Search our weather history database for the weather conditions in past years. The results will help you decide how hot, cold, wet, or windy it might be!

Date:

Astronomy

Mar. 31, 2013 Rise Set
Actual Time 6:46 AM EDT 7:25 PM EDT
Civil Twilight 6:19 AM EDT 7:52 PM EDT
Nautical Twilight 5:46 AM EDT 8:25 PM EDT
Astronomical Twilight 5:13 AM EDT 8:58 PM EDT
Moon No Moon Rise 9:31 AM EDT (3/31)
Length of Visible Light 13h 33m
Length of Day
12h 38m
Waning Gibbous, 78% of the Moon is Illuminated
Mar 31
Waning Gibbous
Apr 3
Last Quarter
Apr 10
New
Apr 18
First Quarter
Apr 25
Full

Hourly Weather History & Observations

Time (EDT) Temp. Windchill Dew Point Humidity Pressure Visibility Wind Dir Wind Speed Gust Speed Precip Events Conditions
12:10 AM 32.0 °F - 26.6 °F 80% 30.13 in 10.0 mi Calm Calm - N/A   Clear
12:30 AM 32.0 °F - 26.6 °F 80% 30.13 in 10.0 mi Calm Calm - N/A   Clear
12:50 AM 32.0 °F - 24.8 °F 75% 30.13 in 10.0 mi Calm Calm - N/A   Clear
1:10 AM 32.0 °F - 24.8 °F 75% 30.13 in 10.0 mi Calm Calm - N/A   Clear
1:30 AM 32.0 °F - 26.6 °F 80% 30.12 in 10.0 mi Calm Calm - N/A   Clear
1:50 AM 30.2 °F - 24.8 °F 80% 30.12 in 10.0 mi Calm Calm - N/A   Clear
2:10 AM 30.2 °F - 24.8 °F 80% 30.12 in 10.0 mi Calm Calm - N/A   Clear
2:30 AM 30.2 °F - 26.6 °F 86% 30.11 in 10.0 mi Calm Calm - N/A   Clear
2:50 AM 28.4 °F - 24.8 °F 86% 30.11 in 10.0 mi Calm Calm - N/A   Clear
3:10 AM 28.4 °F - 24.8 °F 86% 30.11 in 10.0 mi Calm Calm - N/A   Clear
3:30 AM 28.4 °F - 24.8 °F 86% 30.11 in 10.0 mi Calm Calm - N/A   Clear
3:50 AM 28.4 °F - 24.8 °F 86% 30.10 in 10.0 mi Calm Calm - N/A   Clear
4:10 AM 28.4 °F - 24.8 °F 86% 30.10 in 10.0 mi Calm Calm - N/A   Clear
4:30 AM 28.4 °F - 24.8 °F 86% 30.09 in 10.0 mi Calm Calm - N/A   Clear
4:50 AM 28.4 °F - 24.8 °F 86% 30.09 in 10.0 mi Calm Calm - N/A   Clear
5:10 AM 28.4 °F - 24.8 °F 86% 30.09 in 10.0 mi Calm Calm - N/A   Clear
5:30 AM 28.4 °F - 24.8 °F 86% 30.09 in 10.0 mi Calm Calm - N/A   Clear
5:50 AM 28.4 °F - 24.8 °F 86% 30.08 in 10.0 mi Calm Calm - N/A   Clear
6:10 AM 28.4 °F - 24.8 °F 86% 30.08 in 10.0 mi Calm Calm - N/A   Clear
6:30 AM 28.4 °F - 24.8 °F 86% 30.08 in 10.0 mi Calm Calm - N/A   Clear
6:50 AM 28.4 °F - 24.8 °F 86% 30.07 in 10.0 mi Calm Calm - N/A   Clear
7:10 AM 28.4 °F - 26.6 °F 93% 30.07 in 10.0 mi Calm Calm - N/A   Clear
7:30 AM 30.2 °F - 26.6 °F 86% 30.07 in 10.0 mi Calm Calm - N/A   Clear
7:50 AM 32.0 °F - 28.4 °F 87% 30.07 in 10.0 mi Calm Calm - N/A   Clear
8:10 AM 33.8 °F - 28.4 °F 81% 30.07 in 10.0 mi Calm Calm - N/A   Clear
8:30 AM 35.6 °F - 32.0 °F 87% 30.07 in 10.0 mi Calm Calm - N/A   Clear
8:50 AM 39.2 °F 37.0 °F 32.0 °F 75% 30.06 in 10.0 mi ENE 3.5 mph - N/A   Clear
9:10 AM 42.8 °F - 32.0 °F 66% 30.05 in 10.0 mi Calm Calm - N/A   Clear
9:30 AM 46.4 °F 42.9 °F 32.0 °F 57% 30.05 in 10.0 mi SSE 6.9 mph - N/A   Clear
9:50 AM 48.2 °F - 30.2 °F 50% 30.04 in 10.0 mi SSE 8.1 mph - N/A   Clear
10:10 AM 50.0 °F - 30.2 °F 47% 30.03 in 10.0 mi SSE 8.1 mph - N/A   Clear
10:30 AM 50.0 °F - 30.2 °F 47% 30.01 in 10.0 mi SSE 9.2 mph - N/A   Clear
10:50 AM 50.0 °F - 30.2 °F 47% 30.00 in 10.0 mi SSE 10.4 mph 16.1 mph N/A   Clear
11:10 AM 53.6 °F - 28.4 °F 38% 30.00 in 10.0 mi SE 9.2 mph 23.0 mph N/A   Clear
11:30 AM 53.6 °F - 28.4 °F 38% 29.99 in 10.0 mi SSE 8.1 mph - N/A   Mostly Cloudy
11:50 AM 53.6 °F - 28.4 °F 38% 29.98 in 10.0 mi SSE 9.2 mph 24.2 mph N/A   Scattered Clouds
12:10 PM 53.6 °F - 30.2 °F 41% 29.97 in 10.0 mi SE 12.7 mph 21.9 mph N/A   Mostly Cloudy
12:30 PM 55.4 °F - 30.2 °F 38% 29.96 in 10.0 mi SSE 10.4 mph 23.0 mph N/A   Mostly Cloudy
12:50 PM 55.4 °F - 32.0 °F 41% 29.95 in 10.0 mi SE 15.0 mph 20.7 mph N/A   Mostly Cloudy
1:10 PM 55.4 °F - 32.0 °F 41% 29.94 in 10.0 mi SSE 11.5 mph 20.7 mph N/A   Mostly Cloudy
1:30 PM 53.6 °F - 33.8 °F 47% 29.93 in 9.0 mi SSE 11.5 mph 24.2 mph N/A   Mostly Cloudy
1:50 PM 53.6 °F - 35.6 °F 51% 29.91 in 10.0 mi SE 9.2 mph - N/A   Overcast
2:10 PM 53.6 °F - 33.8 °F 47% 29.90 in 10.0 mi SE 10.4 mph - N/A   Scattered Clouds
2:30 PM 55.4 °F - 33.8 °F 44% 29.89 in 10.0 mi SE 8.1 mph - N/A   Partly Cloudy
2:50 PM 55.4 °F - 35.6 °F 47% 29.87 in 10.0 mi ESE 8.1 mph 17.3 mph N/A   Scattered Clouds
3:10 PM 53.6 °F - 35.6 °F 51% 29.85 in 10.0 mi ESE 12.7 mph 17.3 mph N/A   Mostly Cloudy
3:30 PM 51.8 °F - 37.4 °F 58% 29.85 in 5.0 mi SE 13.8 mph 18.4 mph N/A   Overcast
3:50 PM 51.8 °F - 39.2 °F 62% 29.84 in 9.0 mi SE 9.2 mph - N/A   Overcast
4:10 PM 51.8 °F - 39.2 °F 62% 29.83 in 9.0 mi SE 15.0 mph 20.7 mph N/A   Overcast
4:30 PM 50.0 °F - 42.8 °F 76% 29.83 in 3.0 mi SE 10.4 mph 19.6 mph N/A   Overcast
4:50 PM 48.2 °F - 44.6 °F 87% 29.82 in 3.0 mi ESE 10.4 mph - N/A   Overcast
5:10 PM 46.4 °F 44.3 °F 44.6 °F 93% 29.82 in 2.5 mi ESE 4.6 mph - 0.01 in   Overcast
5:30 PM 46.4 °F 42.4 °F 44.6 °F 93% 29.80 in 2.5 mi East 8.1 mph - 0.04 in   Overcast
5:50 PM 46.4 °F 42.9 °F 44.6 °F 93% 29.79 in 3.0 mi ESE 6.9 mph - 0.05 in   Overcast
6:10 PM 46.4 °F 42.9 °F 44.6 °F 93% 29.77 in 4.0 mi East 6.9 mph - 0.01 in   Overcast
6:30 PM 46.4 °F 42.4 °F 44.6 °F 93% 29.76 in 2.5 mi East 8.1 mph - 0.01 in   Overcast
6:50 PM 46.4 °F 42.4 °F 44.6 °F 93% 29.75 in 2.0 mi ESE 8.1 mph - 0.01 in   Overcast
7:10 PM 46.4 °F 41.5 °F 44.6 °F 93% 29.75 in 5.0 mi ESE 10.4 mph - N/A   Overcast
7:30 PM 46.4 °F 41.9 °F 44.6 °F 93% 29.74 in 3.0 mi ESE 9.2 mph - N/A   Overcast
7:50 PM 46.4 °F 42.9 °F 44.6 °F 93% 29.73 in 1.8 mi ESE 6.9 mph - N/A   Overcast
8:10 PM 46.4 °F - 44.6 °F 93% 29.74 in 2.0 mi Calm Calm - N/A   Overcast
8:30 PM 46.4 °F - 44.6 °F 93% 29.73 in 2.0 mi Calm Calm - N/A   Overcast
8:50 PM 46.4 °F 45.2 °F 44.6 °F 93% 29.72 in 3.0 mi East 3.5 mph - N/A   Overcast
9:10 PM 46.4 °F - 44.6 °F 93% 29.72 in 2.0 mi Calm Calm - N/A   Overcast
9:30 PM 46.4 °F - 44.6 °F 93% 29.73 in 1.8 mi Calm Calm - N/A   Overcast
9:50 PM 44.6 °F - 44.6 °F 100% 29.73 in 1.2 mi Calm Calm - N/A   Overcast
10:10 PM 46.4 °F - 44.6 °F 93% 29.72 in 1.8 mi Calm Calm - N/A   Overcast
10:30 PM 46.4 °F - 44.6 °F 93% 29.72 in 1.8 mi Calm Calm - N/A   Overcast
11:10 PM 46.4 °F 43.5 °F 46.4 °F 100% 29.72 in 5.0 mi SW 5.8 mph - N/A   Overcast
11:30 PM 46.4 °F 44.3 °F 46.4 °F 100% 29.72 in 7.0 mi SW 4.6 mph - N/A   Overcast
11:50 PM 46.4 °F - 46.4 °F 100% 29.72 in 8.0 mi Calm Calm - N/A   Overcast